Wind_Speed
2 2 6 10 8 14 15 17 23 22 17 16 18 21 19 20 16 16 17 16 9 9 11 19 21 21 21 19 14 15 25 20 32 31 29 28 27 28 31 35 38 37 35 34
3 5 7 5 7 13 13 18 22 21 12 11 17 22 19 17 15 17 17 17 10 6 8 10 17 19 14 19 8 16 23 21 39 36 35 30 29 29 34 36 37 36 35 35
4 8 10 10 11 10 13 12 18 19 17 10 17 16 15 17 20 19 18 18 11 10 10 11 7 18 10 18 13 11 24 29 32 28 33 28 28 21 22 25 29 35 35 36
6 3 11 13 5 7 11 4 10 13 11 5 5 7 12 6 11 10 15 15 15 10 10 10 7 10 15 14 10 14 18 14 27 34 36 34 31 23 21 30 33 36 35 35
6 11 13 4 10 14 9 14 16 19 14 12 8 5 6 6 9 15 14 10 6 8 11 12 9 13 17 13 8 11 9 10 11 17 28 28 25 24 26 31 32 33 35 34
12 3 1 3 16 13 14 11 20 9 6 4 4 8 3 5 12 17 16 16 14 9 9 8 10 12 12 7 13 8 7 7 6 8 13 24 25 22 24 25 27 30 31 33
8 5 4 3 11 8 17 14 4 5 2 4 5 5 5 17 22 19 22 19 16 13 8 8 8 6 9 6 8 14 15 7 3 4 9 4 20 22 24 25 25 25 25 28
5 8 7 8 2 9 14 8 4 5 4 7 7 3 4 23 28 22 21 22 14 12 8 7 7 5 6 2 9 14 18 14 8 6 8 15 28 25 23 24 24 22 18 16
5 5 3 8 5 9 9 7 16 5 10 4 3 8 2 30 34 36 36 4 7 7 7 6 5 2 7 4 10 12 11 12 13 16 18 20 17 9 13 18 17 18 15 11
3 6 3 6 5 4 9 11 5 3 4 4 5 6 10 29 33 34 18 12 10 10 10 12 12 15 22 25 25 29 29 33 30 32 35 34 31 34 34 35 33 31 30 24
3 2 8 4 6 13 10 8 4 5 3 3 4 3 11 20 26 27 18 19 20 18 16 16 15 23 29 31 33 31 34 36 36 35 43 42 36 40 41 43 38 39 37 34
3 3 5 5 4 8 9 14 5 3 4 3 3 2 19 21 23 23 20 18 20 18 17 18 17 28 32 30 33 34 33 40 34 36 45 46 40 41 43 44 44 42 43 41
7 3 5 9 2 8 8 22 18 2 4 12 4 5 16 22 24 26 21 18 17 19 21 20 20 21 28 29 32 34 35 38 36 47 44 42 40 42 40 42 42 40 43 45
2 2 2 2 6 3 18 22 21 13 3 5 7 11 23 25 25 24 22 17 17 20 21 19 20 20 29 28 30 35 38 38 42 47 41 44 42 39 39 39 38 42 42 42
3 1 4 6 3 0 13 15 20 18 12 6 8 11 17 18 18 17 16 16 22 22 23 20 18 18 25 28 31 37 40 43 44 41 41 40 38 37 39 41 40 42 45 43
4 3 4 4 4 4 10 21 18 17 14 6 10 9 16 15 15 18 18 19 22 22 20 19 20 22 26 25 31 37 40 39 36 37 37 35 36 38 38 38 38 39 41 40
5 5 5 5 7 5 5 19 11 11 15 6 9 8 14 13 15 18 18 20 19 19 17 18 19 23 25 31 31 36 35 35 37 36 34 33 35 38 37 38 41 40 39 40
6 5 2 3 7 8 5 11 3 6 19 19 11 12 9 3 11 18 20 19 18 15 17 17 22 25 27 30 33 34 35 35 35 37 34 33 35 36 35 37 36 36 37 38
5 1 3 4 2 1 3 8 7 6 10 17 15 17 14 3 5 19 20 17 14 13 16 20 23 27 31 31 29 34 36 35 37 34 32 32 32 33 33 32 32 31 33 33
2 4 4 4 5 4 4 5 6 1 10 14 16 15 16 14 13 5 16 19 20 24 24 24 25 28 34 29 27 34 33 33 33 31 33 35 35 36 34 32 33 32 30 28
5 4 4 3 1 5 3 13 4 5 1 3 5 7 11 5 1 5 12 14 18 19 23 22 27 30 28 24 28 33 31 31 28 34 35 36 37 37 35 35 34 33 33 33
1 2 1 2 4 4 5 3 6 3 2 3 2 2 3 4 6 5 8 13 18 21 23 24 26 28 29 26 29 31 30 28 34 37 37 36 35 33 33 35 35 34 33 32
1 4 3 4 4 3 2 4 2 4 4 2 2 2 3 4 5 7 8 13 16 18 20 22 22 26 29 30 30 31 27 33 35 36 35 34 33 33 32 33 30 33 32 29
2 3 3 3 4 3 3 2 3 5 4 3 4 5 5 5 5 5 7 10 12 15 18 20 25 27 27 28 30 30 29 30 33 35 33 32 32 31 32 32 30 28 27 27
3 6 5 2 2 1 6 7 6 5 4 5 6 4 6 6 5 5 7 9 10 11 16 20 21 24 25 25 26 25 26 29 33 33 32 32 31 30 28 26 22 23 22 22
6 7 5 5 10 5 5 11 12 11 9 8 7 6 7 7 7 8 7 7 10 13 16 21 23 24 23 24 24 24 24 26 29 32 30 29 28 27 27 27 25 23 18 19
Wind_Direction
303 295 253 274 244 257 273 281 284 280 283 279 267 262 258 261 256 249 251 259 239 238 260 271 278 294 247 229 211 226 225 210 174 171 178 182 186 187 194 204 209 212 213 214
330 256 270 287 282 285 283 282 280 282 284 276 271 268 267 256 250 239 241 251 239 215 258 269 276 288 240 211 186 233 221 220 185 169 184 183 188 192 199 205 211 214 213 216
265 274 311 333 314 291 282 271 282 279 307 262 271 277 261 254 245 246 242 240 236 206 228 254 257 275 261 221 188 206 210 202 204 185 175 179 182 192 191 202 209 216 218 220
271 286 322 316 306 350 301 312 291 288 306 296 76 298 300 260 245 237 247 249 236 208 216 237 234 264 268 236 205 211 209 204 209 196 174 178 178 182 191 197 209 215 216 219
274 310 331 313 327 332 267 292 284 278 270 289 271 236 279 15 10 357 352 322 264 229 219 226 219 236 259 255 223 206 209 227 249 188 172 178 189 190 187 196 206 215 214 219
292 295 5 277 317 301 275 295 294 269 243 250 259 198 324 24 345 329 324 321 320 272 228 237 230 241 258 257 232 162 175 161 148 212 199 190 195 181 179 190 198 210 218 221
330 334 314 318 329 319 333 335 314 349 8 228 351 190 57 5 353 333 318 307 298 296 239 224 230 217 251 227 190 154 166 136 111 116 187 211 215 192 190 196 201 211 219 226
6 329 19 319 261 309 321 332 319 310 313 313 274 304 123 3 347 328 308 289 263 268 235 208 225 234 239 237 176 160 167 143 91 184 184 233 232 220 222 219 213 212 219 239
327 281 270 295 311 31 317 337 304 254 259 238 245 358 299 348 340 341 329 137 192 240 196 174 115 4 4 351 173 176 126 91 50 65 75 56 55 91 95 102 104 94 93 77
287 295 316 311 9 21 346 348 348 339 317 325 42 61 346 344 337 328 357 48 45 42 57 60 59 52 49 50 68 78 86 76 74 75 77 71 43 69 72 75 75 74 72 67
295 185 297 11 9 345 6 358 316 290 273 336 334 88 360 347 332 325 32 55 64 65 71 70 62 60 57 55 59 64 70 73 70 71 74 75 65 64 66 68 65 70 74 69
332 273 289 255 270 14 29 2 337 264 28 320 306 75 8 351 338 348 20 41 59 60 62 62 64 64 59 58 62 64 68 72 69 74 75 72 70 69 69 69 72 71 73 75
352 331 329 349 334 10 21 11 6 358 354 14 21 329 348 350 355 3 9 29 51 60 59 61 58 61 61 60 63 67 67 72 74 72 71 72 69 66 64 64 67 70 71 72
15 295 309 294 263 325 10 17 21 24 26 319 33 337 3 354 357 354 2 21 45 55 56 61 60 59 60 63 67 71 70 71 72 75 72 70 68 69 71 71 69 70 73 71
46 325 335 280 235 287 23 20 20 28 8 37 334 26 7 0 349 350 360 22 44 49 50 52 60 63 61 64 66 68 67 66 70 72 73 73 75 75 76 74 72 72 73 71
5 317 6 295 309 278 5 22 23 23 12 8 355 37 2 360 3 11 19 26 38 40 43 46 52 54 52 60 67 68 68 69 74 75 74 78 82 81 76 75 73 71 69 67
344 327 7 310 334 345 356 10 15 32 30 341 21 330 335 6 16 20 17 26 31 30 35 42 46 48 51 56 63 67 71 73 71 71 72 71 72 73 72 72 72 68 66 67
306 332 58 284 356 37 354 20 348 14 31 20 10 356 343 25 43 34 23 21 18 19 33 35 42 49 52 59 64 70 69 69 70 67 67 69 71 70 70 70 67 67 66 64
204 296 52 66 49 204 9 4 350 360 29 18 3 1 357 3 95 36 15 13 20 23 34 41 49 53 54 56 65 72 69 68 67 65 64 66 71 73 72 67 65 64 65 62
47 47 92 29 79 26 241 328 310 172 40 17 5 4 1 4 66 352 348 2 15 29 34 36 46 56 57 50 62 69 66 65 63 65 68 73 74 73 70 68 68 71 71 67
345 8 71 23 72 292 281 313 302 58 230 10 10 8 19 50 90 279 333 9 25 33 39 44 51 52 51 57 68 69 67 63 69 77 78 75 74 76 76 75 72 71 69 66
27 14 316 74 52 344 12 321 101 195 322 138 6 24 39 16 359 347 7 23 29 34 37 45 56 53 57 59 69 68 64 80 89 89 85 81 78 77 75 72 68 66 63 59
347 172 185 171 204 241 283 161 211 171 157 218 144 133 93 67 46 35 28 30 37 36 41 49 59 64 70 76 77 77 83 91 90 88 84 82 80 76 70 69 63 56 54 50
237 172 139 82 233 237 219 238 183 183 167 139 105 102 102 105 70 45 51 45 44 44 51 67 75 73 74 81 86 91 93 93 89 85 81 78 75 73 70 63 60 53 44 40
198 139 165 245 220 270 225 212 170 156 134 120 110 124 130 123 91 76 68 60 59 65 78 85 84 85 86 88 87 90 93 91 86 83 79 75 72 70 68 68 56 55 50 39
189 176 174 208 180 165 182 173 163 159 169 160 147 129 122 131 122 110 81 77 86 89 95 94 93 92 88 86 84 85 87 89 88 83 78 75 72 66 60 57 57 51 45 33
Height
773 778 778 768 767 762 758 756 750 736 733 733 729 719 717 713 712 710 707 703 707 706 699 696 695 696 694 694 695 695 698 698 704 704 719 728 735 740 744 750 752 758 764 769
779 776 765 761 759 757 755 753 741 724 722 725 718 713 706 703 701 700 699 697 700 701 698 694 693 693 692 694 690 692 693 699 698 700 716 721 730 735 739 745 749 754 758 763
781 767 762 760 760 757 752 751 737 734 723 721 717 709 696 689 687 687 686 685 690 694 695 690 691 688 689 691 686 693 694 699 700 701 709 717 725 734 737 742 747 750 754 759
775 763 762 761 759 756 751 735 735 732 731 725 717 711 685 684 684 685 683 683 683 687 687 685 686 687 684 685 682 690 695 695 697 699 695 706 714 720 725 733 739 743 748 753
775 765 763 768 756 754 749 735 736 730 728 726 705 720 695 689 694 698 694 688 684 684 682 680 681 681 679 678 678 686 691 694 688 696 698 706 713 717 719 727 733 740 744 749
772 764 765 765 753 749 744 743 720 716 720 729 695 703 693 709 720 708 701 697 690 682 679 678 676 678 676 677 686 680 688 695 693 698 695 706 709 714 716 722 729 736 740 745
781 770 765 762 763 742 744 743 745 750 740 723 693 701 707 721 716 721 709 701 692 684 678 677 677 678 678 680 681 680 691 694 697 699 704 711 713 711 717 722 725 730 735 741
819 798 777 769 773 766 754 752 742 751 714 710 690 696 691 716 714 716 703 689 685 679 675 676 677 678 678 678 681 685 691 697 702 705 706 712 709 710 711 712 723 726 729 737
813 804 771 770 767 767 763 760 758 756 729 730 697 717 698 724 716 705 691 663 674 673 673 674 679 681 682 685 685 691 695 701 705 705 706 710 713 714 714 719 721 730 734 738
810 807 773 766 770 767 771 769 770 752 744 734 702 741 771 755 746 724 678 673 678 680 682 683 685 687 688 691 693 693 698 704 711 712 711 714 730 721 721 724 730 730 733 739
809 814 785 778 793 786 781 783 775 767 750 738 726 762 780 777 770 748 693 687 685 690 691 693 696 697 698 700 702 706 707 712 718 721 718 726 738 733 732 734 741 740 743 750
811 812 809 805 793 784 786 795 787 780 752 764 752 761 781 784 774 750 715 707 705 707 707 705 708 706 709 715 716 717 721 719 726 729 729 735 743 747 747 748 750 753 753 756
817 810 819 792 786 782 788 793 789 771 775 787 784 784 791 790 777 762 743 730 725 721 718 720 719 720 725 730 730 731 733 734 741 731 742 751 755 757 762 759 760 766 765 764
817 817 812 815 811 809 799 800 799 799 815 805 804 811 800 798 793 781 765 753 744 736 734 734 734 736 740 743 744 742 744 749 745 745 758 758 762 770 774 777 780 776 775 776
820 834 828 823 818 808 810 810 811 816 819 815 814 814 816 817 812 801 789 772 756 753 750 752 753 753 755 754 753 751 752 752 756 763 766 770 778 788 786 786 788 789 786 788
827 837 837 827 820 810 801 808 811 818 824 820 815 813 822 823 818 809 799 787 776 773 772 770 767 766 764 767 764 763 763 770 777 779 782 789 794 795 794 795 795 798 794 795
833 825 828 825 823 811 809 820 824 829 836 835 835 838 831 829 827 820 813 804 799 795 791 787 780 781 781 777 778 777 783 786 786 790 795 798 794 795 798 799 799 801 802 805
831 825 844 847 834 810 821 829 831 830 835 841 842 842 837 832 831 826 821 817 815 812 803 798 798 797 795 793 792 793 795 798 799 799 803 806 806 805 808 810 812 812 813 813
837 837 855 842 862 818 823 836 842 841 836 846 846 842 837 823 821 827 835 833 830 827 823 818 814 809 806 806 807 805 806 808 808 812 817 817 818 819 821 822 823 823 823 825
827 834 843 878 862 836 838 843 841 844 830 855 855 853 847 829 827 852 849 844 838 833 828 825 822 820 816 819 818 813 816 818 820 825 827 827 829 827 829 832 831 830 832 834
859 858 871 889 878 844 851 844 838 835 848 867 867 862 859 859 868 864 858 853 848 844 839 836 832 829 831 833 829 824 828 829 834 834 835 835 837 836 839 838 839 840 840 839
854 864 884 899 876 846 853 840 835 861 869 870 870 869 868 868 866 863 860 856 852 848 846 844 840 840 841 841 838 838 839 844 842 842 843 844 845 847 848 846 846 847 846 846
850 851 859 860 858 861 863 865 862 864 865 867 865 866 866 866 867 866 864 862 860 857 854 852 850 851 850 849 848 847 851 851 851 851 852 853 854 853 853 852 852 851 852 852
845 843 850 854 853 860 861 858 858 859 859 859 860 863 865 867 869 869 868 867 865 864 862 861 859 858 859 860 858 858 860 859 858 857 859 859 857 858 857 858 858 858 859 858
836 840 841 845 847 853 851 850 851 855 857 860 862 863 865 867 870 870 871 871 870 869 868 866 866 866 866 866 865 866 866 865 862 862 863 864 865 865 864 864 865 864 865 865
825 823 826 822 817 823 826 837 845 850 854 857 860 864 867 868 870 872 873 874 874 874 873 871 871 871 872 871 870 870 872 870 869 868 870 871 870 870 870 869 868 868 868 867